Date_and_time,latitude,longitude,wind_speed,RelWindDirFrom,WindDirFrom,air_pressure,air_temperature,relative_humidity,Temp,platform_speed_wrt_ground,air_pressure_at_mean_sea_level,platform_orientation
2019-07-16 00:00,50.6304433333333,-96.980765,8.6,16.9,290,978.19,27.9,40,23.08,0.0,1003.19,90.0
2019-07-16 00:10,50.6304416666667,-96.9807616666667,8.9,15.4,296,978.21,27.8,39,23.07,0.0,1003.22,90.0
2019-07-16 00:20,50.6304383333333,-96.98076,9.0,16.8,293,978.35,27.8,39,23.05,0.0,1003.38,90.0
2019-07-16 00:30,50.6304366666667,-96.9807583333333,10.5,23.5,309,978.25,27.4,41,23.05,0.0,1003.30,90.0
2019-07-16 00:40,50.63043,-96.9807666666667,14.2,24.2,317,978.41,25.9,49,23.06,0.0,1003.53,90.0
2019-07-16 00:50,50.6304316666667,-96.9807516666667,10.7,18.3,320,978.86,25.1,52,23.20,0.0,1004.05,90.0
2019-07-16 01:00,50.6304516666667,-96.9807616666667,9.4,14.9,328,979.00,24.9,54,23.68,0.0,1004.21,360.0
2019-07-16 01:10,50.6304333333333,-96.9807683333333,11.3,18.1,329,978.98,24.6,55,23.38,0.0,1004.21,360.0
2019-07-16 01:20,50.6304316666667,-96.9807666666667,8.3,13.1,322,979.14,24.5,55,23.24,0.0,1004.38,360.0
2019-07-16 01:30,50.630435,-96.9807683333333,6.9,11.0,312,979.35,24.4,55,23.54,0.0,1004.59,360.0
2019-07-16 01:40,50.6304366666667,-96.9807666666667,6.0,11.8,300,979.42,24.3,55,23.72,0.0,1004.63,360.0
2019-07-16 01:50,50.6304366666667,-96.980765,5.3,8.3,299,979.48,24.1,56,23.27,0.0,1004.68,360.0
2019-07-16 02:00,50.6304383333333,-96.980765,4.6,7.3,293,979.64,23.8,57,23.18,0.0,1004.86,131.7
2019-07-16 02:10,50.6304516666667,-96.9807683333333,4.3,7.4,282,979.79,23.5,59,23.22,0.0,1005.03,131.7
2019-07-16 02:20,50.6304416666667,-96.980755,3.8,6.9,267,979.90,23.1,61,23.54,0.0,1005.18,131.7
2019-07-16 02:30,50.6304483333333,-96.9807616666667,4.8,7.6,270,979.91,22.7,63,23.15,0.0,1005.26,131.7
2019-07-16 02:40,50.630425,-96.98077,4.5,7.1,266,980.02,22.4,65,23.19,0.0,1005.43,131.7
2019-07-16 02:50,50.630455,-96.9807733333333,4.6,7.1,271,980.14,22.1,67,23.32,0.0,1005.57,131.7
2019-07-16 03:00,50.63045,-96.9807666666667,4.6,7.4,268,980.14,21.8,68,23.28,0.0,1005.59,360.0
2019-07-16 03:10,50.6304466666667,-96.980765,4.5,7.2,267,980.17,21.7,69,23.30,0.0,1005.64,360.0
2019-07-16 03:20,50.630445,-96.9807666666667,4.9,8.6,271,980.20,21.4,69,23.52,0.0,1005.68,360.0
2019-07-16 03:30,50.630445,-96.980765,4.4,6.9,278,980.25,21.3,70,23.38,0.0,1005.75,360.0
2019-07-16 03:40,50.630445,-96.9807633333333,5.3,8.0,280,980.27,21.1,70,23.31,0.0,1005.78,360.0
2019-07-16 03:50,50.630445,-96.9807633333333,5.3,8.7,283,980.33,21.1,69,23.27,0.0,1005.86,360.0
2019-07-16 04:00,50.630445,-96.980765,5.1,7.7,292,980.37,21.3,67,23.17,0.0,1005.90,360.0
2019-07-16 04:10,50.6304433333333,-96.980765,4.4,6.7,283,980.43,21.1,68,23.04,0.0,1005.99,360.0
2019-07-16 04:20,50.630445,-96.980765,4.7,8.0,285,980.50,20.9,68,23.01,0.0,1006.08,360.0
2019-07-16 04:30,50.630445,-96.980765,4.2,6.5,288,980.58,20.7,69,23.00,0.0,1006.19,360.0
2019-07-16 04:40,50.63044,-96.98075,3.9,5.5,281,980.74,20.4,70,22.92,0.0,1006.38,360.0
2019-07-16 04:50,50.630435,-96.980755,4.2,6.0,264,980.88,20.0,72,22.82,0.0,1006.56,360.0
2019-07-16 05:00,50.63043,-96.9807516666667,4.7,5.9,260,981.04,19.7,73,22.87,0.0,1006.74,176.8
2019-07-16 05:10,50.630455,-96.9807683333333,4.0,6.1,263,981.12,19.5,74,22.94,0.0,1006.84,176.8
2019-07-16 05:20,50.6304233333333,-96.980745,4.1,6.5,274,981.31,19.5,75,23.00,0.0,1007.05,176.8
2019-07-16 05:30,50.6304433333333,-96.9807566666667,3.3,5.1,277,981.43,19.4,76,22.93,0.0,1007.18,176.8
2019-07-16 05:40,50.6304833333333,-96.9807883333333,4.1,7.5,284,981.58,19.3,76,22.90,0.0,1007.34,176.8
2019-07-16 05:50,50.6304616666667,-96.9807733333333,4.8,7.0,287,981.76,19.2,77,22.92,0.0,1007.52,176.8
2019-07-16 06:00,50.6304566666667,-96.9807733333333,5.7,9.3,303,981.75,19.2,77,22.96,0.0,1007.52,270.0
2019-07-16 06:10,50.6304516666667,-96.98077,6.2,8.6,314,981.62,19.3,78,22.90,0.0,1007.39,270.0
2019-07-16 06:20,50.6304333333333,-96.9807616666667,5.8,8.6,309,981.72,19.2,79,22.87,0.0,1007.51,270.0
2019-07-16 06:30,50.63044,-96.9807616666667,5.1,7.4,292,981.97,19.0,80,22.85,0.0,1007.78,270.0
2019-07-16 06:40,50.6304383333333,-96.9807583333333,4.8,7.5,277,982.13,18.7,82,22.86,0.0,1007.98,270.0
2019-07-16 06:50,50.63044,-96.98076,5.2,7.5,269,982.33,18.5,84,22.88,0.0,1008.21,270.0
2019-07-16 07:00,50.63044,-96.98076,5.3,8.0,273,982.48,18.2,85,22.94,0.0,1008.38,90.0
2019-07-16 07:10,50.63044,-96.98076,5.3,7.4,273,982.47,18.2,86,22.88,0.0,1008.37,90.0
2019-07-16 07:20,50.6304416666667,-96.9807616666667,5.4,7.4,275,982.51,18.0,88,22.89,0.0,1008.43,90.0
2019-07-16 07:30,50.6304416666667,-96.9807616666667,4.8,7.0,270,982.58,17.7,90,22.95,0.0,1008.51,90.0
2019-07-16 07:40,50.6304583333333,-96.98076,4.6,6.3,278,982.30,17.6,91,23.04,0.0,1008.23,90.0
2019-07-16 07:50,50.6304533333333,-96.9807716666667,4.7,6.6,269,982.39,17.5,92,23.08,0.0,1008.33,90.0
2019-07-16 08:00,50.6304483333333,-96.9807733333333,5.4,7.8,272,982.59,17.4,93,23.08,0.0,1008.54,332.6
2019-07-16 08:10,50.6304466666667,-96.9807733333333,5.1,7.2,275,982.71,17.4,94,22.96,0.0,1008.67,332.6
2019-07-16 08:20,50.6304283333333,-96.9807866666667,4.9,6.4,277,982.75,17.3,95,23.03,0.0,1008.72,332.6
2019-07-16 08:30,50.6304466666667,-96.9807616666667,4.7,6.0,280,982.72,17.2,95,22.97,0.0,1008.71,332.6
2019-07-16 08:40,50.6304466666667,-96.9807666666667,4.5,6.0,278,982.84,17.1,96,22.93,0.0,1008.84,332.6
2019-07-16 08:50,50.6304583333333,-96.98078,5.1,6.9,280,982.94,17.1,96,23.04,0.0,1008.96,332.6
2019-07-16 09:00,50.630445,-96.9807583333333,5.0,6.5,300,982.90,17.2,94,23.02,0.0,1008.91,143.4
2019-07-16 09:10,50.6304466666667,-96.9807483333333,4.3,6.2,290,982.99,17.2,94,22.92,0.0,1009.01,143.4
2019-07-16 09:20,50.6304466666667,-96.9807516666667,4.4,6.4,283,983.23,17.1,94,22.91,0.0,1009.28,143.4
2019-07-16 09:30,50.6304583333333,-96.980755,4.4,6.1,293,983.11,17.0,95,22.89,0.0,1009.17,143.4
2019-07-16 09:40,50.63044,-96.980755,5.4,7.2,306,983.02,16.9,95,22.85,0.0,1009.09,143.4
2019-07-16 09:50,50.6304466666667,-96.9807533333333,5.8,8.3,300,983.09,16.9,95,22.86,0.0,1009.16,143.4
2019-07-16 10:00,50.6304466666667,-96.9807566666667,6.0,8.5,303,982.97,17.0,94,22.90,0.0,1009.03,38.0
2019-07-16 10:10,50.6304533333333,-96.9807616666667,5.6,8.9,313,982.84,17.0,95,22.79,0.0,1008.90,38.0
2019-07-16 10:20,50.6304483333333,-96.9807683333333,5.9,7.5,306,982.96,16.9,94,22.79,0.0,1009.03,38.0
2019-07-16 10:30,50.6304466666667,-96.9807716666667,4.7,7.2,298,983.05,17.0,94,22.82,0.0,1009.13,38.0
2019-07-16 10:40,50.6304483333333,-96.9807683333333,4.8,7.0,292,983.15,16.6,96,22.84,0.0,1009.25,38.0
2019-07-16 10:50,50.6304533333333,-96.9807583333333,4.1,5.6,276,983.42,16.3,98,22.84,0.0,1009.54,38.0
2019-07-16 11:00,50.6304516666667,-96.9807633333333,4.4,6.3,268,983.60,16.0,99,22.83,0.0,1009.73,12.6
2019-07-16 11:10,50.6304516666667,-96.98077,4.6,6.8,274,983.68,15.9,99,22.84,0.0,1009.82,12.6
2019-07-16 11:20,50.6304583333333,-96.9807466666667,5.3,7.0,281,983.69,16.0,99,22.84,0.0,1009.84,12.6
2019-07-16 11:30,50.6304533333333,-96.98077,4.8,6.9,286,983.78,16.2,98,22.84,0.0,1009.93,12.6
2019-07-16 11:40,50.6304583333333,-96.9807716666667,5.1,7.8,285,983.96,16.4,96,22.85,0.0,1010.10,12.6
2019-07-16 11:50,50.63046,-96.9807733333333,4.7,6.3,276,984.10,16.5,95,22.81,0.0,1010.23,12.6
2019-07-16 12:00,50.630455,-96.980765,4.4,6.8,290,984.17,16.7,94,22.79,0.0,1010.30,345.5
2019-07-16 12:10,50.6304533333333,-96.9807633333333,5.1,7.7,293,984.25,17.0,93,22.79,0.0,1010.37,345.5
2019-07-16 12:20,50.6304516666667,-96.980765,5.4,7.4,294,984.33,17.2,91,22.78,0.0,1010.44,345.5
2019-07-16 12:30,50.63045,-96.9807633333333,5.5,7.5,297,984.36,17.4,91,22.78,0.0,1010.48,345.5
2019-07-16 12:40,50.63045,-96.9807633333333,4.2,6.2,285,984.43,17.7,90,22.79,0.0,1010.55,345.5
2019-07-16 12:50,50.63044,-96.98075,4.0,5.9,285,984.52,18.1,89,22.78,0.0,1010.63,345.5
2019-07-16 13:00,50.6304433333333,-96.9807533333333,3.4,5.3,284,984.61,18.5,88,22.70,0.0,1010.71,167.4
2019-07-16 13:10,50.6304466666667,-96.9807566666667,3.2,5.0,278,984.65,18.8,86,22.65,0.0,1010.74,167.4
2019-07-16 13:20,50.6304466666667,-96.9807583333333,2.6,3.9,288,984.73,19.0,84,22.69,0.0,1010.80,167.4
2019-07-16 13:30,50.630445,-96.98076,3.2,4.6,313,984.73,19.4,82,22.74,0.0,1010.78,167.4
2019-07-16 13:40,50.630445,-96.98076,1.3,4.0,294,984.80,19.7,80,22.77,0.0,1010.83,167.4
2019-07-16 18:30,50.6304483333333,-96.98076,6.0,7.9,99,985.60,24.1,62,22.80,0.0,1011.16,291.5
2019-07-16 18:40,50.6304483333333,-96.9807716666667,6.4,8.1,92,985.58,24.2,61,22.82,0.0,1011.15,291.5
2019-07-16 18:50,50.63045,-96.9807733333333,6.6,7.9,102,985.53,24.1,61,22.85,0.0,1011.13,291.5
2019-07-16 19:00,50.6304516666667,-96.9807766666667,6.3,7.8,106,985.58,23.9,62,22.90,0.0,1011.20,305.3
2019-07-16 19:10,50.630455,-96.9807766666667,5.9,7.8,98,985.67,24.1,59,23.08,0.0,1011.23,305.3
2019-07-16 19:20,50.6304533333333,-96.9807766666667,5.5,7.3,86,985.72,24.4,58,23.06,0.0,1011.25,305.3
2019-07-16 19:30,50.6304516666667,-96.9807766666667,5.1,7.3,93,985.76,24.8,55,23.02,0.0,1011.27,305.3
2019-07-16 19:40,50.6304516666667,-96.9807766666667,6.2,8.8,100,985.72,24.9,56,22.99,0.0,1011.26,305.3
2019-07-16 19:50,50.6304516666667,-96.9807766666667,6.5,8.5,106,985.78,24.5,57,22.96,0.0,1011.32,305.3
2019-07-16 20:00,50.6304516666667,-96.9807766666667,7.3,9.1,119,985.79,23.6,60,22.95,0.0,1011.34,360.0
2019-07-16 20:10,50.6304633333333,-96.9807766666667,6.6,9.4,120,985.74,23.6,57,22.93,0.0,1011.28,360.0
2019-07-16 20:20,50.6304566666667,-96.9807783333333,6.4,8.4,124,985.66,23.7,58,23.00,0.0,1011.19,360.0
